TimeCDT,TemperatureF,Dew PointF,Humidity,Sea Level PressureIn,VisibilityMPH,Wind Direction,Wind SpeedMPH,Gust SpeedMPH,PrecipitationIn,Events,Conditions,WindDirDegrees,DateUTC
12:53 AM,50.0,46.9,89,30.19,10.0,Calm,Calm,-,N/A,,Clear,0,2013-09-13 05:53:00
1:53 AM,48.0,46.0,93,30.21,10.0,Calm,Calm,-,N/A,,Clear,0,2013-09-13 06:53:00
2:53 AM,46.9,44.1,90,30.21,10.0,Calm,Calm,-,N/A,,Clear,0,2013-09-13 07:53:00
3:53 AM,46.9,44.1,90,30.21,10.0,Calm,Calm,-,N/A,,Clear,0,2013-09-13 08:53:00
4:53 AM,44.1,42.1,93,30.22,10.0,Calm,Calm,-,N/A,,Clear,0,2013-09-13 09:53:00
5:53 AM,43.0,41.0,93,30.23,10.0,Calm,Calm,-,N/A,,Clear,0,2013-09-13 10:53:00
6:53 AM,42.1,39.9,92,30.25,5.0,Calm,Calm,-,N/A,,Clear,0,2013-09-13 11:53:00
7:53 AM,48.0,46.0,93,30.26,10.0,Calm,Calm,-,N/A,,Clear,0,2013-09-13 12:53:00
8:53 AM,53.1,46.9,80,30.27,10.0,Calm,Calm,-,N/A,,Clear,0,2013-09-13 13:53:00
9:53 AM,57.9,44.1,60,30.28,10.0,ESE,4.6,-,N/A,,Clear,110,2013-09-13 14:53:00
10:53 AM,61.0,43.0,52,30.27,10.0,NNE,8.1,-,N/A,,Scattered Clouds,20,2013-09-13 15:53:00
11:53 AM,64.0,42.1,45,30.26,10.0,Variable,4.6,-,N/A,,Clear,0,2013-09-13 16:53:00
12:53 PM,66.9,39.9,37,30.24,10.0,Variable,4.6,-,N/A,,Clear,0,2013-09-13 17:53:00
1:53 PM,68.0,39.9,36,30.22,10.0,NW,5.8,-,N/A,,Clear,320,2013-09-13 18:53:00
2:53 PM,69.1,41.0,36,30.19,10.0,Variable,4.6,-,N/A,,Clear,0,2013-09-13 19:53:00
3:53 PM,70.0,37.9,31,30.18,10.0,Variable,4.6,-,N/A,,Clear,0,2013-09-13 20:53:00
4:53 PM,70.0,37.9,31,30.17,10.0,ENE,4.6,-,N/A,,Clear,60,2013-09-13 21:53:00
5:53 PM,69.1,37.0,31,30.16,10.0,Variable,3.5,-,N/A,,Clear,0,2013-09-13 22:53:00
6:53 PM,64.9,39.9,40,30.16,10.0,East,3.5,-,N/A,,Clear,100,2013-09-13 23:53:00
7:53 PM,54.0,45.0,72,30.17,10.0,Calm,Calm,-,N/A,,Clear,0,2013-09-14 00:53:00
8:53 PM,48.9,44.1,83,30.18,10.0,Calm,Calm,-,N/A,,Clear,0,2013-09-14 01:53:00
9:53 PM,46.9,44.1,90,30.17,10.0,Calm,Calm,-,N/A,,Clear,0,2013-09-14 02:53:00
10:53 PM,44.1,42.1,93,30.17,10.0,Calm,Calm,-,N/A,,Clear,0,2013-09-14 03:53:00
11:53 PM,44.1,42.1,93,30.17,10.0,Calm,Calm,-,N/A,,Clear,0,2013-09-14 04:53:00